ONEWEB-0704, 61609

Orbit data source: Space-Track

ONEWEB-0704, 61609 is a payload satellite owned by Eut. One Web (UK) in LEO that was launched on Sun, 20 Oct 2024 UTC via an FALCON 9 launch vehicle from the Air Force Western Test Range (AFWTR). Payload-class satellites include a variety of spacecraft equipped with specific instruments for various scientific and technological missions. These include communications satellites like Starlink; space stations such as the ISS; scientific satellites like the Hubble; Earth observation satellites from companies like Planet Labs, Umbra, and HawkEye 360; GPS; miniature CubeSats for education and research; and military/defense satellites.

Loading next visibility...
Identifier
61609, 2024-188R
Orbit
LEO
Country
Flag of UKUK
Related business
Manufacturer
One Web
Mission
Operational Commercial Communications
Bus & Motor
ARROW, Unknown motor
Mass
148 kg wet, ~140 kg dry
Launch date (UTC)
2024-10-20 (1 year ago)
Launch vehicle
FALCON 9
Launch site
Air Force Western Test Range (AFWTR)
Object type
Payload
Rocket body
Debris
Shape & HBR
Trap Box + 2 Pan, 6.7 m
Radar Cross Section
3.464 m², Large (>1 m²)

Expand to show TLE details & history
Last TLE update: 13 hours ago

TLE from 13 hours ago
0 ONEWEB-0704
1 61609U 24188R   25340.80126411  .00000615  00000-0  17253-2 0  9994
2 61609  87.8825  74.5773 0001075  67.7587 292.3654 13.10371342 58096
Epoch: 2025-12-06T19:13Z
TLE epoch observation values (Epoch: 2025-12-06T19:13:49.219Z)
Latitude
-0.00003°
Longitude
70.29843°
Altitude
1,224.3 km
Speed
7.242 km/s
True Right ascension
04h 58m 18s
True Declination
0° 00' 00"
Sunlit
Object was in full shadow at epoch
Visualization orbit readout
Latitude
Unknown
Longitude
Unknown
Altitude
Unknown
Speed
Unknown
Apparent Right ascension
Unknown
Apparent Declination
Unknown
Sunlit
N/A
Visualization observer readout
Local Sidereal Time
06:22:59
Azimuth
Unknown
Elevation
Unknown
Doppler factor
Unknown
Orbital elements
Apogee altitude
1,219.659 km
Perigee altitude
1,218.026 km
Semi-major axis
7,596.98 km
Eccentricity
0.00011
Inclination
87.8825°
RAAN
74.5773°
Arg. of periapsis
67.7587°
True anomaly
292.35401°
Mean anomaly
292.3654°
Eccentric anomaly
292.3597°
Mean motion
3.27779 °/min
Orbital period
109.83 mins
BSTAR
0.0017253
Loading maneuver chart data...
Computing Atmospheric mass density...
Loading historical data...
Loading historical data...
Loading historical data...
Loading historical data...
Loading historical data...
Loading historical data...
Loading historical data...

Documentation

Showing up to 5 results
|